Regional Weather Roundup
Issued by NWS

Home | Current Version | Previous Version | Graphics & Text | Print | Product List | Glossary On
Versions: 1 2 3 4 5 6 7 8 9 10 11 12 13 14 15 16 17 18 19 20 21 22 23 24 25 26 27 28 29 30 31 32 33 34 35 36 37 38 39 40 41 42 43 44 45 46 47 48 49 50
181
ASUS45 KCYS 281910
RWRWY

WYOMING REGIONAL WEATHER ROUNDUP
NATIONAL WEATHER SERVICE CHEYENNE WY
100 PM MDT FRI APR 28 2017

NOTE:  "FAIR" INDICATES FEW OR NO CLOUDS BELOW 12,000 FEET
WITH NO SIGNIFICANT WEATHER AND/OR OBSTRUCTIONS TO VISIBILITY.

WYZ001-282000-
YELLOWSTONE NATIONAL PARK

CITY           SKY/WX    TMP DP  RH WIND       PRES   REMARKS
LK YELLOWSTONE   N/A     35  20  54 VRB6      29.89R WCI  30
W YELLOWSTONE  NOT AVBL

$$
WYZ002>013-054>058-071-098>099-282000-
NORTHERN WYOMING

CITY           SKY/WX    TMP DP  RH WIND       PRES   REMARKS
JACKSON        CLOUDY    39  25  56 N23       29.83S WCI  29
CODY           FAIR      37  31  78 N18G26    29.95R WCI  27
GREYBULL       CLOUDY    47  21  35 NW15      29.89R
WORLAND        CLOUDY    44  32  62 NW13      29.88R
SHERIDAN       CLOUDY    39  32  76 NW6       30.00R WCI  35
BUFFALO        LGT SNOW  34  30  85 N10       29.99R VSB 1   WCI  26
GILLETTE       LGT SNOW  34  33  96 N10       29.97R WCI  26
HULETT         CLOUDY    39  30  70 E13G21    29.98R WCI  32
NEWCASTLE      MOCLDY    37  27  65 E12       29.94R WCI  30

$$
WYZ014>020-022>026-101>103-282000-
CENTRAL WYOMING

CITY           SKY/WX    TMP DP  RH WIND       PRES   REMARKS
BIG PINEY      LGT SNOW  33  29  85 N18       29.79R VSB 3/4 WCI  22
PINEDALE       FAIR      37  27  65 NW10G20   29.78S WCI  30
DUBOIS         FLURRIES  32  28  86 SE16      29.82R WCI  21
LANDER         LGT SNOW  31  30  96 N9        29.87R VSB 3/4 WCI  23
RIVERTON       SNOW      32  31  96 N14G23    29.87R VSB 1/4 WCI  22
CASPER         LGT SNOW  32  29  88 E29G38    29.83R FOG     WCI  18
DOUGLAS        HVY SNOW  31  29  92 E18       29.88R VSB 1/4 WCI  19

$$
WYZ021-027>030-104>119-282000-
SOUTHERN WYOMING

CITY           SKY/WX    TMP DP  RH WIND       PRES   REMARKS
EVANSTON       LGT SNOW  30  27  88 NW13      29.83  VSB 1   WCI  20
KEMMERER       LGT SNOW  32  28  86 NW13      29.80R WCI  22
ROCK SPRINGS   SNOW      32  27  81 W7        29.79R VSB 1/2 WCI  26
DIXON          LGT SNOW  34  31  86 W7        29.79S WCI  28
RAWLINS        LGT SNOW  32  27  81 N10       29.76R WCI  24
SARATOGA       CLOUDY    36  21  55 NW8       29.74S WCI  29
LARAMIE        FLURRIES  38  25  59 N14       29.70R WCI  30
CHEYENNE       PTSUNNY   38  27  64 N24G36    29.72R WCI  27
TORRINGTON     SNOW      33  32  96 E18G26    29.84R VSB 1/2 WCI  22
PINE BLUFFS    CLOUDY    36  34  93 E21       29.77R WCI  24

$$




USA.gov is the U.S. government's official web portal to all federal, state and local government web resources and services.